Location: Saint Louis
(38.6272°N, 90.1978°W)
Time: 10:39:09
(UTC-05:00)

Tiangong 1 - Visible Passes

Search period start: 19 April 2015 00:00
Search period end: 29 April 2015 00:00
Orbit: 383 x 399 km, 42.8° (Epoch: 19 April)

Date Brightness Start Highest point End Pass type
(mag) Time Alt. Az. Time Alt. Az. Time Alt. Az.
24 Apr 3.3 04:53:33 13° S 04:54:57 17° SE 04:57:09 10° E visible
25 Apr 1.4 05:30:53 11° SW 05:33:52 57° SSE 05:37:00 10° ENE visible
26 Apr 2.1 04:35:46 31° SSE 04:36:11 32° SSE 04:39:05 10° E visible
27 Apr 4.1 03:40:31 12° ESE 03:40:31 12° ESE 03:40:50 10° E visible
27 Apr 1.1 05:12:50 17° WSW 05:15:07 80° NNW 05:18:17 10° ENE visible
28 Apr 1.3 04:17:29 59° SE 04:17:29 59° SE 04:20:22 10° ENE visible
